Year,Month,Day,Hour,Minute,Value (Times are PST for temperature in C)
2008,07,17,00,00,14.20
2008,07,17,00,01,14.20
2008,07,17,00,02,14.20
2008,07,17,00,03,14.20
2008,07,17,00,04,14.10
2008,07,17,00,05,14.10
2008,07,17,00,06,14.10
2008,07,17,00,07,14.10
2008,07,17,00,08,14.00
2008,07,17,00,09,14.00
2008,07,17,00,10,13.90
2008,07,17,00,11,13.90
2008,07,17,00,12,13.90
2008,07,17,00,13,13.90
2008,07,17,00,14,13.80
2008,07,17,00,15,13.80
2008,07,17,00,16,13.80
2008,07,17,00,17,13.80
2008,07,17,00,18,13.80
2008,07,17,00,19,13.70
2008,07,17,00,20,13.70
2008,07,17,00,21,13.70
2008,07,17,00,22,13.70
2008,07,17,00,23,13.60
2008,07,17,00,24,13.60
2008,07,17,00,25,13.60
2008,07,17,00,26,13.50
2008,07,17,00,27,13.50
2008,07,17,00,28,13.50
2008,07,17,00,29,13.50
2008,07,17,00,30,13.40
2008,07,17,00,31,13.40
2008,07,17,00,32,13.40
2008,07,17,00,33,13.40
2008,07,17,00,34,13.30
2008,07,17,00,35,13.30
2008,07,17,00,36,13.30
2008,07,17,00,37,13.30
2008,07,17,00,38,13.30
2008,07,17,00,39,13.20
2008,07,17,00,40,13.20
2008,07,17,00,41,13.20
2008,07,17,00,42,13.20
2008,07,17,00,43,13.20
2008,07,17,00,44,13.10
2008,07,17,00,45,13.10
2008,07,17,00,46,13.10
2008,07,17,00,47,13.10
2008,07,17,00,48,13.10
2008,07,17,00,49,13.10
2008,07,17,00,50,13.00
2008,07,17,00,51,13.00
2008,07,17,00,52,13.00
2008,07,17,00,53,12.90
2008,07,17,00,54,12.90
2008,07,17,00,55,12.90
2008,07,17,00,56,12.90
2008,07,17,00,57,12.90
2008,07,17,00,58,12.80
2008,07,17,00,59,12.80
2008,07,17,01,00,12.80
2008,07,17,01,01,12.80
2008,07,17,01,02,12.80
2008,07,17,01,03,12.70
2008,07,17,01,04,12.70
2008,07,17,01,05,12.70
2008,07,17,01,06,12.70
2008,07,17,01,07,12.60
2008,07,17,01,08,12.60
2008,07,17,01,09,12.60
2008,07,17,01,10,12.60
2008,07,17,01,11,12.50
2008,07,17,01,12,12.50
2008,07,17,01,13,12.50
2008,07,17,01,14,12.50
2008,07,17,01,15,12.40
2008,07,17,01,16,12.40
2008,07,17,01,17,12.40
2008,07,17,01,18,12.40
2008,07,17,01,19,12.40
2008,07,17,01,20,12.40
2008,07,17,01,21,12.40
2008,07,17,01,22,12.30
2008,07,17,01,23,12.30
2008,07,17,01,24,12.30
2008,07,17,01,25,12.30
2008,07,17,01,26,12.30
2008,07,17,01,27,12.30
2008,07,17,01,28,12.20
2008,07,17,01,29,12.20
2008,07,17,01,30,12.20
2008,07,17,01,31,12.20
2008,07,17,01,32,12.20
2008,07,17,01,33,12.20
2008,07,17,01,34,12.10
2008,07,17,01,35,12.10
2008,07,17,01,36,12.10
2008,07,17,01,37,12.10
2008,07,17,01,38,12.10
2008,07,17,01,39,12.10
2008,07,17,01,40,12.00
2008,07,17,01,41,12.00
2008,07,17,01,42,12.00
2008,07,17,01,43,12.00
2008,07,17,01,44,12.00
2008,07,17,01,45,12.00
2008,07,17,01,46,11.90
2008,07,17,01,47,11.90
2008,07,17,01,48,11.90
2008,07,17,01,49,11.90
2008,07,17,01,50,11.90
2008,07,17,01,51,11.90
2008,07,17,01,52,11.80
2008,07,17,01,53,11.80
2008,07,17,01,54,11.80
2008,07,17,01,55,11.80
2008,07,17,01,56,11.80
2008,07,17,01,57,11.70
2008,07,17,01,58,11.70
2008,07,17,01,59,11.70
2008,07,17,02,00,11.70
2008,07,17,02,01,11.70
2008,07,17,02,02,11.70
2008,07,17,02,03,11.60
2008,07,17,02,04,11.60
2008,07,17,02,05,11.60
2008,07,17,02,06,11.60
2008,07,17,02,07,11.60
2008,07,17,02,08,11.60
2008,07,17,02,09,11.60
2008,07,17,02,10,11.60
2008,07,17,02,11,11.60
2008,07,17,02,12,11.50
2008,07,17,02,13,11.50
2008,07,17,02,14,11.50
2008,07,17,02,15,11.50
2008,07,17,02,16,11.50
2008,07,17,02,17,11.40
2008,07,17,02,18,11.40
2008,07,17,02,19,11.40
2008,07,17,02,20,11.40
2008,07,17,02,21,11.40
2008,07,17,02,22,11.40
2008,07,17,02,23,11.40
2008,07,17,02,24,11.40
2008,07,17,02,25,11.40
2008,07,17,02,26,11.40
2008,07,17,02,27,11.40
2008,07,17,02,28,11.40
2008,07,17,02,29,11.40
2008,07,17,02,30,11.40
2008,07,17,02,31,11.40
2008,07,17,02,32,11.40
2008,07,17,02,33,11.40
2008,07,17,02,34,11.40
2008,07,17,02,35,11.40
2008,07,17,02,36,11.40
2008,07,17,02,37,11.40
2008,07,17,02,38,11.30
2008,07,17,02,39,11.30
2008,07,17,02,40,11.30
2008,07,17,02,41,11.30
2008,07,17,02,42,11.30
2008,07,17,02,43,11.30
2008,07,17,02,44,11.30
2008,07,17,02,45,11.20
2008,07,17,02,46,11.20
2008,07,17,02,47,11.20
2008,07,17,02,48,11.20
2008,07,17,02,49,11.20
2008,07,17,02,50,11.20
2008,07,17,02,51,11.20
2008,07,17,02,52,11.20
2008,07,17,02,53,11.20
2008,07,17,02,54,11.20
2008,07,17,02,55,11.10
2008,07,17,02,56,11.10
2008,07,17,02,57,11.10
2008,07,17,02,58,11.10
2008,07,17,02,59,11.10
2008,07,17,03,00,11.10
2008,07,17,03,01,11.10
2008,07,17,03,02,11.00
2008,07,17,03,03,11.00
2008,07,17,03,04,11.00
2008,07,17,03,05,11.00
2008,07,17,03,06,11.00
2008,07,17,03,07,10.90
2008,07,17,03,08,10.90
2008,07,17,03,09,10.90
2008,07,17,03,10,10.90
2008,07,17,03,11,10.90
2008,07,17,03,12,10.90
2008,07,17,03,13,10.90
2008,07,17,03,14,10.90
2008,07,17,03,15,10.90
2008,07,17,03,16,10.90
2008,07,17,03,17,10.90
2008,07,17,03,18,10.90
2008,07,17,03,19,10.90
2008,07,17,03,20,10.90
2008,07,17,03,21,10.90
2008,07,17,03,22,10.90
2008,07,17,03,23,10.90
2008,07,17,03,24,10.90
2008,07,17,03,25,10.90
2008,07,17,03,26,10.90
2008,07,17,03,27,10.90
2008,07,17,03,28,10.90
2008,07,17,03,29,10.90
2008,07,17,03,30,10.80
2008,07,17,03,31,10.80
2008,07,17,03,32,10.80
2008,07,17,03,33,10.80
2008,07,17,03,34,10.80
2008,07,17,03,35,10.80
2008,07,17,03,36,10.80
2008,07,17,03,37,10.80
2008,07,17,03,38,10.80
2008,07,17,03,39,10.80
2008,07,17,03,40,10.80
2008,07,17,03,41,10.80
2008,07,17,03,42,10.80
2008,07,17,03,43,10.80
2008,07,17,03,44,10.80
2008,07,17,03,45,10.80
2008,07,17,03,46,10.80
2008,07,17,03,47,10.80
2008,07,17,03,48,10.80
2008,07,17,03,49,10.80
2008,07,17,03,50,10.80
2008,07,17,03,51,10.80
2008,07,17,03,52,10.80
2008,07,17,03,53,10.70
2008,07,17,03,54,10.70
2008,07,17,03,55,10.70
2008,07,17,03,56,10.70
2008,07,17,03,57,10.70
2008,07,17,03,58,10.70
2008,07,17,03,59,10.70
2008,07,17,04,00,10.70
2008,07,17,04,01,10.70
2008,07,17,04,02,10.70
2008,07,17,04,03,10.70
2008,07,17,04,04,10.70
2008,07,17,04,05,10.70
2008,07,17,04,06,10.70
2008,07,17,04,07,10.70
2008,07,17,04,08,10.70
2008,07,17,04,09,10.70
2008,07,17,04,10,10.80
2008,07,17,04,11,10.80
2008,07,17,04,12,10.80
2008,07,17,04,13,10.80
2008,07,17,04,14,10.80
2008,07,17,04,15,10.80
2008,07,17,04,16,10.80
2008,07,17,04,17,10.80
2008,07,17,04,18,10.80
2008,07,17,04,19,10.80
2008,07,17,04,20,10.80
2008,07,17,04,21,10.80
2008,07,17,04,22,10.80
2008,07,17,04,23,10.80
2008,07,17,04,24,10.80
2008,07,17,04,25,10.80
2008,07,17,04,26,10.80
2008,07,17,04,27,10.80
2008,07,17,04,28,10.80
2008,07,17,04,29,10.80
2008,07,17,04,30,10.80
2008,07,17,04,31,10.80
2008,07,17,04,32,10.80
2008,07,17,04,33,10.80
2008,07,17,04,34,10.80
2008,07,17,04,35,10.80
2008,07,17,04,36,10.80
2008,07,17,04,37,10.80
2008,07,17,04,38,10.80
2008,07,17,04,39,10.80
2008,07,17,04,40,10.80
2008,07,17,04,41,10.80
2008,07,17,04,42,10.80
2008,07,17,04,43,10.80
2008,07,17,04,44,10.80
2008,07,17,04,45,10.80
2008,07,17,04,46,10.80
2008,07,17,04,47,10.80
2008,07,17,04,48,10.80
2008,07,17,04,49,10.80
2008,07,17,04,50,10.80
2008,07,17,04,51,10.80
2008,07,17,04,52,10.80
2008,07,17,04,53,10.80
2008,07,17,04,54,10.80
2008,07,17,04,55,10.80
2008,07,17,04,56,10.80
2008,07,17,04,57,10.80
2008,07,17,04,58,10.80
2008,07,17,04,59,10.80
2008,07,17,05,00,10.80
2008,07,17,05,01,10.70
2008,07,17,05,02,10.70
2008,07,17,05,03,10.70
2008,07,17,05,04,10.70
2008,07,17,05,05,10.70
2008,07,17,05,06,10.70
2008,07,17,05,07,10.70
2008,07,17,05,08,10.70
2008,07,17,05,09,10.70
2008,07,17,05,10,10.70
2008,07,17,05,11,10.70
2008,07,17,05,12,10.70
2008,07,17,05,13,10.70
2008,07,17,05,14,10.60
2008,07,17,05,15,10.60
2008,07,17,05,16,10.60
2008,07,17,05,17,10.60
2008,07,17,05,18,10.60
2008,07,17,05,19,10.60
2008,07,17,05,20,10.60
2008,07,17,05,21,10.60
2008,07,17,05,22,10.60
2008,07,17,05,23,10.60
2008,07,17,05,24,10.60
2008,07,17,05,25,10.60
2008,07,17,05,26,10.60
2008,07,17,05,27,10.50
2008,07,17,05,28,10.50
2008,07,17,05,29,10.50
2008,07,17,05,30,10.50
2008,07,17,05,31,10.50
2008,07,17,05,32,10.50
2008,07,17,05,33,10.50
2008,07,17,05,34,10.50
2008,07,17,05,35,10.50
2008,07,17,05,36,10.50
2008,07,17,05,37,10.50
2008,07,17,05,38,10.50
2008,07,17,05,39,10.50
2008,07,17,05,40,10.40
2008,07,17,05,41,10.40
2008,07,17,05,42,10.40
2008,07,17,05,43,10.40
2008,07,17,05,44,10.40
2008,07,17,05,45,10.40
2008,07,17,05,46,10.40
2008,07,17,05,47,10.40
2008,07,17,05,48,10.40
2008,07,17,05,49,10.40
2008,07,17,05,50,10.40
2008,07,17,05,51,10.40
2008,07,17,05,52,10.40
2008,07,17,05,53,10.40
2008,07,17,05,54,10.40
2008,07,17,05,55,10.40
2008,07,17,05,56,10.40
2008,07,17,05,57,10.40
2008,07,17,05,58,10.40
2008,07,17,05,59,10.40
2008,07,17,06,00,10.40
2008,07,17,06,01,10.40
2008,07,17,06,02,10.40
2008,07,17,06,03,10.40
2008,07,17,06,04,10.40
2008,07,17,06,05,10.40
2008,07,17,06,06,10.40
2008,07,17,06,07,10.40
2008,07,17,06,08,10.40
2008,07,17,06,09,10.30
2008,07,17,06,10,10.30
2008,07,17,06,11,10.30
2008,07,17,06,12,10.30
2008,07,17,06,13,10.30
2008,07,17,06,14,10.30
2008,07,17,06,15,10.30
2008,07,17,06,16,10.30
2008,07,17,06,17,10.30
2008,07,17,06,18,10.30
2008,07,17,06,19,10.30
2008,07,17,06,20,10.30
2008,07,17,06,21,10.30
2008,07,17,06,22,10.30
2008,07,17,06,23,10.30
2008,07,17,06,24,10.30
2008,07,17,06,25,10.30
2008,07,17,06,26,10.30
2008,07,17,06,27,10.30
2008,07,17,06,28,10.30
2008,07,17,06,29,10.30
2008,07,17,06,30,10.30
2008,07,17,06,31,10.30
2008,07,17,06,32,10.30
2008,07,17,06,33,10.30
2008,07,17,06,34,10.30
2008,07,17,06,35,10.30
2008,07,17,06,36,10.30
2008,07,17,06,37,10.30
2008,07,17,06,38,10.30
2008,07,17,06,39,10.30
2008,07,17,06,40,10.30
2008,07,17,06,41,10.30
2008,07,17,06,42,10.30
2008,07,17,06,43,10.30
2008,07,17,06,44,10.30
2008,07,17,06,45,10.30
2008,07,17,06,46,10.30
2008,07,17,06,47,10.30
2008,07,17,06,48,10.30
2008,07,17,06,49,10.30
2008,07,17,06,50,10.30
2008,07,17,06,51,10.30
2008,07,17,06,52,10.30
2008,07,17,06,53,10.30
2008,07,17,06,54,10.30
2008,07,17,06,55,10.30
2008,07,17,06,56,10.40
2008,07,17,06,57,10.40
2008,07,17,06,58,10.40
2008,07,17,06,59,10.40
2008,07,17,07,00,10.40
2008,07,17,07,01,10.50
2008,07,17,07,02,10.50
2008,07,17,07,03,10.50
2008,07,17,07,04,10.50
2008,07,17,07,05,10.50
2008,07,17,07,06,10.60
2008,07,17,07,07,10.60
2008,07,17,07,08,10.60
2008,07,17,07,09,10.60
2008,07,17,07,10,10.60
2008,07,17,07,11,10.60
2008,07,17,07,12,10.60
2008,07,17,07,13,10.60
2008,07,17,07,14,10.70
2008,07,17,07,15,10.70
2008,07,17,07,16,10.70
2008,07,17,07,17,10.70
2008,07,17,07,18,10.70
2008,07,17,07,19,10.70
2008,07,17,07,20,10.70
2008,07,17,07,21,10.70
2008,07,17,07,22,10.70
2008,07,17,07,23,10.70
2008,07,17,07,24,10.70
2008,07,17,07,25,10.70
2008,07,17,07,26,10.70
2008,07,17,07,27,10.70
2008,07,17,07,28,10.70
2008,07,17,07,29,10.70
2008,07,17,07,30,10.70
2008,07,17,07,31,10.70
2008,07,17,07,32,10.70
2008,07,17,07,33,10.80
2008,07,17,07,34,10.80
2008,07,17,07,35,10.80
2008,07,17,07,36,10.80
2008,07,17,07,37,10.80
2008,07,17,07,38,10.80
2008,07,17,07,39,10.80
2008,07,17,07,40,10.80
2008,07,17,07,41,10.80
2008,07,17,07,42,10.90
2008,07,17,07,43,10.90
2008,07,17,07,44,11.00
2008,07,17,07,45,11.00
2008,07,17,07,46,11.00
2008,07,17,07,47,11.10
2008,07,17,07,48,11.20
2008,07,17,07,49,11.20
2008,07,17,07,50,11.30
2008,07,17,07,51,11.30
2008,07,17,07,52,11.30
2008,07,17,07,53,11.40
2008,07,17,07,54,11.40
2008,07,17,07,55,11.40
2008,07,17,07,56,11.50
2008,07,17,07,57,11.50
2008,07,17,07,58,11.60
2008,07,17,07,59,11.60
2008,07,17,08,00,11.60
2008,07,17,08,01,11.70
2008,07,17,08,02,11.80
2008,07,17,08,03,11.80
2008,07,17,08,04,11.90
2008,07,17,08,05,12.00
2008,07,17,08,06,12.00
2008,07,17,08,07,12.10
2008,07,17,08,08,12.20
2008,07,17,08,09,12.30
2008,07,17,08,10,12.30
2008,07,17,08,11,12.40
2008,07,17,08,12,12.40
2008,07,17,08,13,12.50
2008,07,17,08,14,12.50
2008,07,17,08,15,12.50
2008,07,17,08,16,12.60
2008,07,17,08,17,12.70
2008,07,17,08,18,12.70
2008,07,17,08,19,12.80
2008,07,17,08,20,12.80
2008,07,17,08,21,12.90
2008,07,17,08,22,12.90
2008,07,17,08,23,12.90
2008,07,17,08,24,12.90
2008,07,17,08,25,13.00
2008,07,17,08,26,13.00
2008,07,17,08,27,13.10
2008,07,17,08,28,13.20
2008,07,17,08,29,13.20
2008,07,17,08,30,13.20
2008,07,17,08,31,13.20
2008,07,17,08,32,13.20
2008,07,17,08,33,13.20
2008,07,17,08,34,13.20
2008,07,17,08,35,13.20
2008,07,17,08,36,13.20
2008,07,17,08,37,13.30
2008,07,17,08,38,13.30
2008,07,17,08,39,13.40
2008,07,17,08,40,13.40
2008,07,17,08,41,13.40
2008,07,17,08,42,13.40
2008,07,17,08,43,13.50
2008,07,17,08,44,13.50
2008,07,17,08,45,13.50
2008,07,17,08,46,13.60
2008,07,17,08,47,13.60
2008,07,17,08,48,13.60
2008,07,17,08,49,13.70
2008,07,17,08,50,13.70
2008,07,17,08,51,13.80
2008,07,17,08,52,13.80
2008,07,17,08,53,13.90
2008,07,17,08,54,14.00
2008,07,17,08,55,14.10
2008,07,17,08,56,14.20
2008,07,17,08,57,14.30
2008,07,17,08,58,14.30
2008,07,17,08,59,14.30
2008,07,17,09,00,14.40
2008,07,17,09,01,14.40
2008,07,17,09,02,14.40
2008,07,17,09,03,14.50
2008,07,17,09,04,14.60
2008,07,17,09,05,14.70
2008,07,17,09,06,14.70
2008,07,17,09,07,14.60
2008,07,17,09,08,14.60
2008,07,17,09,09,14.60
2008,07,17,09,10,14.50
2008,07,17,09,11,14.50
2008,07,17,09,12,14.60
2008,07,17,09,13,14.60
2008,07,17,09,14,14.70
2008,07,17,09,15,14.80
2008,07,17,09,16,14.90
2008,07,17,09,17,14.90
2008,07,17,09,18,14.90
2008,07,17,09,19,15.00
2008,07,17,09,20,15.00
2008,07,17,09,21,15.10
2008,07,17,09,22,15.20
2008,07,17,09,23,15.20
2008,07,17,09,24,15.20
2008,07,17,09,25,15.00
2008,07,17,09,26,15.00
2008,07,17,09,27,15.00
2008,07,17,09,28,15.00
2008,07,17,09,29,15.00
2008,07,17,09,30,15.00
2008,07,17,09,31,14.90
2008,07,17,09,32,14.80
2008,07,17,09,33,14.70
2008,07,17,09,34,14.70
2008,07,17,09,35,14.70
2008,07,17,09,36,14.70
2008,07,17,09,37,14.70
2008,07,17,09,38,14.60
2008,07,17,09,39,14.60
2008,07,17,09,40,14.60
2008,07,17,09,41,14.70
2008,07,17,09,42,14.70
2008,07,17,09,43,14.80
2008,07,17,09,44,14.80
2008,07,17,09,45,15.00
2008,07,17,09,46,15.00
2008,07,17,09,47,15.00
2008,07,17,09,48,15.00
2008,07,17,09,49,15.10
2008,07,17,09,50,15.20
2008,07,17,09,51,15.30
2008,07,17,09,52,15.30
2008,07,17,09,53,15.40
2008,07,17,09,54,15.50
2008,07,17,09,55,15.60
2008,07,17,09,56,15.60
2008,07,17,09,57,15.70
2008,07,17,09,58,15.80
2008,07,17,09,59,15.90
2008,07,17,10,00,16.00
2008,07,17,10,01,16.10
2008,07,17,10,02,16.20
2008,07,17,10,03,16.30
2008,07,17,10,04,16.40
2008,07,17,10,05,16.40
2008,07,17,10,06,16.40
2008,07,17,10,07,16.40
2008,07,17,10,08,16.50
2008,07,17,10,09,16.60
2008,07,17,10,10,16.70
2008,07,17,10,11,16.90
2008,07,17,10,12,17.00
2008,07,17,10,13,17.10
2008,07,17,10,14,17.30
2008,07,17,10,15,17.30
2008,07,17,10,16,17.40
2008,07,17,10,17,17.60
2008,07,17,10,18,17.60
2008,07,17,10,19,17.70
2008,07,17,10,20,17.70
2008,07,17,10,21,17.80
2008,07,17,10,22,17.80
2008,07,17,10,23,17.70
2008,07,17,10,24,17.80
2008,07,17,10,25,17.80
2008,07,17,10,26,17.90
2008,07,17,10,27,18.00
2008,07,17,10,28,18.10
2008,07,17,10,29,18.10
2008,07,17,10,30,18.10
2008,07,17,10,31,18.10
2008,07,17,10,32,18.20
2008,07,17,10,33,18.10
2008,07,17,10,34,18.10
2008,07,17,10,35,18.00
2008,07,17,10,36,18.00
2008,07,17,10,37,18.00
2008,07,17,10,38,18.10
2008,07,17,10,39,18.20
2008,07,17,10,40,18.20
2008,07,17,10,41,18.20
2008,07,17,10,42,18.20
2008,07,17,10,43,18.20
2008,07,17,10,44,18.20
2008,07,17,10,45,18.30
2008,07,17,10,46,18.50
2008,07,17,10,47,18.60
2008,07,17,10,48,18.80
2008,07,17,10,49,18.90
2008,07,17,10,50,19.10
2008,07,17,10,51,19.20
2008,07,17,10,52,19.40
2008,07,17,10,53,19.50
2008,07,17,10,54,19.60
2008,07,17,10,55,19.60
2008,07,17,10,56,19.70
2008,07,17,10,57,19.70
2008,07,17,10,58,19.80
2008,07,17,10,59,19.90
2008,07,17,11,00,20.00
2008,07,17,11,01,20.10
2008,07,17,11,02,20.10
2008,07,17,11,03,20.20
2008,07,17,11,04,20.30
2008,07,17,11,05,20.30
2008,07,17,11,06,20.30
2008,07,17,11,07,20.30
2008,07,17,11,08,20.40
2008,07,17,11,09,20.50
2008,07,17,11,10,20.60
2008,07,17,11,11,20.60
2008,07,17,11,12,20.60
2008,07,17,11,13,20.50
2008,07,17,11,14,20.50
2008,07,17,11,15,20.50
2008,07,17,11,16,20.60
2008,07,17,11,17,20.70
2008,07,17,11,18,20.80
2008,07,17,11,19,20.80
2008,07,17,11,20,20.80
2008,07,17,11,21,20.70
2008,07,17,11,22,20.70
2008,07,17,11,23,20.70
2008,07,17,11,24,20.80
2008,07,17,11,25,21.00
2008,07,17,11,26,21.10
2008,07,17,11,27,21.20
2008,07,17,11,28,21.30
2008,07,17,11,29,21.30
2008,07,17,11,30,21.40
2008,07,17,11,31,21.50
2008,07,17,11,32,21.50
2008,07,17,11,33,21.60
2008,07,17,11,34,21.60
2008,07,17,11,35,21.50
2008,07,17,11,36,21.50
2008,07,17,11,37,21.40
2008,07,17,11,38,21.50
2008,07,17,11,39,21.60
2008,07,17,11,40,21.60
2008,07,17,11,41,21.60
2008,07,17,11,42,21.60
2008,07,17,11,43,21.60
2008,07,17,11,44,21.70
2008,07,17,11,45,21.80
2008,07,17,11,46,21.80
2008,07,17,11,47,21.80
2008,07,17,11,48,21.80
2008,07,17,11,49,21.70
2008,07,17,11,50,21.70
2008,07,17,11,51,21.70
2008,07,17,11,52,21.70
2008,07,17,11,53,21.80
2008,07,17,11,54,21.80
2008,07,17,11,55,21.80
2008,07,17,11,56,21.80
2008,07,17,11,57,21.90
2008,07,17,11,58,22.00
2008,07,17,11,59,22.20
2008,07,17,12,00,22.20
2008,07,17,12,01,22.20
2008,07,17,12,02,22.20
2008,07,17,12,03,22.10
2008,07,17,12,04,22.20
2008,07,17,12,05,22.20
2008,07,17,12,06,22.20
2008,07,17,12,07,22.20
2008,07,17,12,08,22.30
2008,07,17,12,09,22.30
2008,07,17,12,10,22.30
2008,07,17,12,11,22.20
2008,07,17,12,12,22.20
2008,07,17,12,13,22.10
2008,07,17,12,14,22.00
2008,07,17,12,15,21.90
2008,07,17,12,16,21.90
2008,07,17,12,17,21.80
2008,07,17,12,18,21.90
2008,07,17,12,19,22.00
2008,07,17,12,20,22.10
2008,07,17,12,21,22.30
2008,07,17,12,22,22.40
2008,07,17,12,23,22.40
2008,07,17,12,24,22.50
2008,07,17,12,25,22.50
2008,07,17,12,26,22.50
2008,07,17,12,27,22.40
2008,07,17,12,28,22.50
2008,07,17,12,29,22.60
2008,07,17,12,30,22.60
2008,07,17,12,31,22.70
2008,07,17,12,32,22.70
2008,07,17,12,33,22.70
2008,07,17,12,34,22.80
2008,07,17,12,35,22.80
2008,07,17,12,36,22.80
2008,07,17,12,37,22.80
2008,07,17,12,38,22.90
2008,07,17,12,39,22.90
2008,07,17,12,40,23.00
2008,07,17,12,41,23.10
2008,07,17,12,42,23.20
2008,07,17,12,43,23.20
2008,07,17,12,44,23.30
2008,07,17,12,45,23.10
2008,07,17,12,46,22.90
2008,07,17,12,47,22.80
2008,07,17,12,48,22.80
2008,07,17,12,49,22.70
2008,07,17,12,50,22.80
2008,07,17,12,51,22.90
2008,07,17,12,52,23.10
2008,07,17,12,53,23.20
2008,07,17,12,54,23.20
2008,07,17,12,55,23.20
2008,07,17,12,56,23.10
2008,07,17,12,57,23.10
2008,07,17,12,58,23.00
2008,07,17,12,59,22.90
2008,07,17,13,00,22.90
2008,07,17,13,01,22.90
2008,07,17,13,02,23.00
2008,07,17,13,03,23.20
2008,07,17,13,04,23.30
2008,07,17,13,05,23.40
2008,07,17,13,06,23.50
2008,07,17,13,07,23.70
2008,07,17,13,08,23.80
2008,07,17,13,09,23.80
2008,07,17,13,10,23.80
2008,07,17,13,11,23.80
2008,07,17,13,12,23.80
2008,07,17,13,13,23.80
2008,07,17,13,14,23.70
2008,07,17,13,15,23.50
2008,07,17,13,16,23.20
2008,07,17,13,17,23.10
2008,07,17,13,18,23.10
2008,07,17,13,19,23.10
2008,07,17,13,20,23.10
2008,07,17,13,21,23.20
2008,07,17,13,22,23.30
2008,07,17,13,23,23.50
2008,07,17,13,24,23.50
2008,07,17,13,25,23.50
2008,07,17,13,26,23.60
2008,07,17,13,27,23.50
2008,07,17,13,28,23.60
2008,07,17,13,29,23.60
2008,07,17,13,30,23.50
2008,07,17,13,31,23.40
2008,07,17,13,32,23.40
2008,07,17,13,33,23.30
2008,07,17,13,34,23.20
2008,07,17,13,35,23.20
2008,07,17,13,36,23.20
2008,07,17,13,37,23.10
2008,07,17,13,38,23.10
2008,07,17,13,39,23.10
2008,07,17,13,40,23.10
2008,07,17,13,41,23.10
2008,07,17,13,42,23.10
2008,07,17,13,43,23.10
2008,07,17,13,44,23.20
2008,07,17,13,45,23.20
2008,07,17,13,46,23.40
2008,07,17,13,47,23.40
2008,07,17,13,48,23.40
2008,07,17,13,49,23.40
2008,07,17,13,50,23.40
2008,07,17,13,51,23.50
2008,07,17,13,52,23.60
2008,07,17,13,53,23.70
2008,07,17,13,54,23.80
2008,07,17,13,55,23.90
2008,07,17,13,56,23.90
2008,07,17,13,57,23.70
2008,07,17,13,58,23.50
2008,07,17,13,59,23.40
2008,07,17,14,00,23.40
2008,07,17,14,01,23.40
2008,07,17,14,02,23.40
2008,07,17,14,03,23.30
2008,07,17,14,04,23.30
2008,07,17,14,05,23.40
2008,07,17,14,06,23.40
2008,07,17,14,07,23.30
2008,07,17,14,08,23.20
2008,07,17,14,09,23.20
2008,07,17,14,10,23.20
2008,07,17,14,11,23.20
2008,07,17,14,12,23.30
2008,07,17,14,13,23.40
2008,07,17,14,14,23.50
2008,07,17,14,15,23.60
2008,07,17,14,16,23.70
2008,07,17,14,17,23.80
2008,07,17,14,18,23.90
2008,07,17,14,19,23.90
2008,07,17,14,20,23.90
2008,07,17,14,21,23.80
2008,07,17,14,22,23.70
2008,07,17,14,23,23.70
2008,07,17,14,24,23.70
2008,07,17,14,25,23.80
2008,07,17,14,26,23.80
2008,07,17,14,27,23.70
2008,07,17,14,28,23.70
2008,07,17,14,29,23.60
2008,07,17,14,30,23.60
2008,07,17,14,31,23.60
2008,07,17,14,32,23.60
2008,07,17,14,33,23.60
2008,07,17,14,34,23.60
2008,07,17,14,35,23.70
2008,07,17,14,36,23.70
2008,07,17,14,37,23.90
2008,07,17,14,38,24.00
2008,07,17,14,39,24.00
2008,07,17,14,40,24.00
2008,07,17,14,41,24.10
2008,07,17,14,42,24.20
2008,07,17,14,43,24.20
2008,07,17,14,44,24.30
2008,07,17,14,45,24.30
2008,07,17,14,46,24.30
2008,07,17,14,47,24.30
2008,07,17,14,48,24.20
2008,07,17,14,49,24.10
2008,07,17,14,50,24.00
2008,07,17,14,51,23.80
2008,07,17,14,52,23.70
2008,07,17,14,53,23.70
2008,07,17,14,54,23.70
2008,07,17,14,55,23.70
2008,07,17,14,56,23.60
2008,07,17,14,57,23.60
2008,07,17,14,58,23.50
2008,07,17,14,59,23.40
2008,07,17,15,00,23.30
2008,07,17,15,01,23.20
2008,07,17,15,02,23.20
2008,07,17,15,03,23.20
2008,07,17,15,04,23.30
2008,07,17,15,05,23.30
2008,07,17,15,06,23.30
2008,07,17,15,07,23.30
2008,07,17,15,08,23.40
2008,07,17,15,09,23.50
2008,07,17,15,10,23.50
2008,07,17,15,11,23.50
2008,07,17,15,12,23.60
2008,07,17,15,13,23.60
2008,07,17,15,14,23.70
2008,07,17,15,15,23.70
2008,07,17,15,16,23.60
2008,07,17,15,17,23.60
2008,07,17,15,18,23.60
2008,07,17,15,19,23.60
2008,07,17,15,20,23.80
2008,07,17,15,21,23.90
2008,07,17,15,22,23.90
2008,07,17,15,23,23.90
2008,07,17,15,24,24.00
2008,07,17,15,25,24.10
2008,07,17,15,26,24.00
2008,07,17,15,27,23.90
2008,07,17,15,28,23.70
2008,07,17,15,29,23.60
2008,07,17,15,30,23.60
2008,07,17,15,31,23.50
2008,07,17,15,32,23.40
2008,07,17,15,33,23.40
2008,07,17,15,34,23.40
2008,07,17,15,35,23.30
2008,07,17,15,36,23.30
2008,07,17,15,37,23.20
2008,07,17,15,38,23.20
2008,07,17,15,39,23.30
2008,07,17,15,40,23.30
2008,07,17,15,41,23.40
2008,07,17,15,42,23.40
2008,07,17,15,43,23.30
2008,07,17,15,44,23.30
2008,07,17,15,45,23.30
2008,07,17,15,46,23.40
2008,07,17,15,47,23.50
2008,07,17,15,48,23.70
2008,07,17,15,49,23.80
2008,07,17,15,50,23.80
2008,07,17,15,51,23.80
2008,07,17,15,52,23.80
2008,07,17,15,53,23.80
2008,07,17,15,54,23.80
2008,07,17,15,55,23.70
2008,07,17,15,56,23.50
2008,07,17,15,57,23.50
2008,07,17,15,58,23.40
2008,07,17,15,59,23.50
2008,07,17,16,00,23.60
2008,07,17,16,01,23.70
2008,07,17,16,02,23.70
2008,07,17,16,03,23.70
2008,07,17,16,04,23.70
2008,07,17,16,05,23.70
2008,07,17,16,06,23.70
2008,07,17,16,07,23.70
2008,07,17,16,08,23.60
2008,07,17,16,09,23.60
2008,07,17,16,10,23.70
2008,07,17,16,11,23.80
2008,07,17,16,12,23.80
2008,07,17,16,13,23.70
2008,07,17,16,14,23.70
2008,07,17,16,15,23.80
2008,07,17,16,16,23.90
2008,07,17,16,17,24.00
2008,07,17,16,18,24.00
2008,07,17,16,19,24.00
2008,07,17,16,20,24.00
2008,07,17,16,21,24.00
2008,07,17,16,22,24.00
2008,07,17,16,23,23.90
2008,07,17,16,24,23.90
2008,07,17,16,25,23.80
2008,07,17,16,26,23.70
2008,07,17,16,27,23.60
2008,07,17,16,28,23.60
2008,07,17,16,29,23.60
2008,07,17,16,30,23.60
2008,07,17,16,31,23.60
2008,07,17,16,32,23.50
2008,07,17,16,33,23.50
2008,07,17,16,34,23.50
2008,07,17,16,35,23.50
2008,07,17,16,36,23.40
2008,07,17,16,37,23.40
2008,07,17,16,38,23.40
2008,07,17,16,39,23.40
2008,07,17,16,40,23.40
2008,07,17,16,41,23.40
2008,07,17,16,42,23.50
2008,07,17,16,43,23.50
2008,07,17,16,44,23.50
2008,07,17,16,45,23.50
2008,07,17,16,46,23.50
2008,07,17,16,47,23.50
2008,07,17,16,48,23.50
2008,07,17,16,49,23.60
2008,07,17,16,50,23.60
2008,07,17,16,51,23.60
2008,07,17,16,52,23.60
2008,07,17,16,53,23.50
2008,07,17,16,54,23.40
2008,07,17,16,55,23.30
2008,07,17,16,56,23.30
2008,07,17,16,57,23.40
2008,07,17,16,58,23.40
2008,07,17,16,59,23.40
2008,07,17,17,00,23.50
2008,07,17,17,01,23.50
2008,07,17,17,02,23.40
2008,07,17,17,03,23.40
2008,07,17,17,04,23.40
2008,07,17,17,05,23.40
2008,07,17,17,06,23.40
2008,07,17,17,07,23.40
2008,07,17,17,08,23.40
2008,07,17,17,09,23.40
2008,07,17,17,10,23.40
2008,07,17,17,11,23.50
2008,07,17,17,12,23.50
2008,07,17,17,13,23.60
2008,07,17,17,14,23.60
2008,07,17,17,15,23.70
2008,07,17,17,16,23.60
2008,07,17,17,17,23.50
2008,07,17,17,18,23.50
2008,07,17,17,19,23.40